This is the latest recevied weather packets stored in our database for station/object IZ6UQU-13. If no packets are shown the sender has not sent any weather packets the latest 10 day(s).
| Time | Temp. | Humidity | Pressure | Rain* | Wind** | Luminosity | Snow |
|---|---|---|---|---|---|---|---|
| 1777824307 | 19.44° C | 57% | 958.2 hPa | 0 mm | - | - | - |
| 1777824007 | 19.44° C | 56% | 958.2 hPa | 0 mm | - | - | - |
| 1777823707 | 19.44° C | 56% | 958.4 hPa | 0 mm | - | - | - |
| 1777823407 | 19.44° C | 57% | 958.2 hPa | 0 mm | - | - | - |
| 1777823107 | 20° C | 57% | 958.3 hPa | 0 mm | - | - | - |
| 1777822807 | 20° C | 58% | 958.3 hPa | 0 mm | - | - | - |
| 1777822507 | 19.44° C | 56% | 958.4 hPa | 0 mm | - | - | - |
| 1777822207 | 20° C | 56% | 958.4 hPa | 0 mm | - | - | - |
| 1777821907 | 20° C | 56% | 958.4 hPa | 0 mm | - | - | - |
| 1777821607 | 20° C | 54% | 958.4 hPa | 0 mm | - | - | - |
| 1777821306 | 20° C | 54% | 958.4 hPa | 0 mm | - | - | - |
| 1777821007 | 20.56° C | 54% | 958.4 hPa | 0 mm | - | - | - |
| 1777820707 | 20.56° C | 53% | 958.5 hPa | 0 mm | - | - | - |
| 1777820407 | 20° C | 55% | 958.4 hPa | 0 mm | - | - | - |
| 1777820106 | 19.44° C | 56% | 958.5 hPa | 0 mm | - | - | - |
| 1777819807 | 19.44° C | 56% | 958.6 hPa | 0 mm | - | - | - |
| 1777819507 | 19.44° C | 57% | 958.6 hPa | 0 mm | - | - | - |
| 1777819207 | 19.44° C | 56% | 958.6 hPa | 0 mm | - | - | - |
| 1777818907 | 19.44° C | 56% | 958.5 hPa | 0 mm | - | - | - |
| 1777818307 | 20° C | 53% | 958.5 hPa | 0 mm | - | - | - |
| 1777818006 | 20.56° C | 52% | 958.5 hPa | 0 mm | - | - | - |
| 1777817707 | 21.11° C | 52% | 958.5 hPa | 0 mm | - | - | - |
| 1777817406 | 21.11° C | 50% | 958.6 hPa | 0 mm | - | - | - |
| 1777817106 | 21.11° C | 50% | 958.5 hPa | 0 mm | - | - | - |
| 1777816807 | 21.11° C | 50% | 958.5 hPa | 0 mm | - | - | - |
* Rain latest hour (hover to see other rain measurements)
** Current wind speed in m/s (hover to see current wind gust speed)